ASA440 PAJN-PANC

Flight info

Callsign ASA440
Flight time 1h 21m
Altitude 38000
Route CHLKT2 ALATY JOH WITTI5
Aircraft B38M/M-SDE1FGHILORVWXY/HB1

Departure

Time 2026-04-25 17:50
Airport Juneau International Airport (PAJN)

Arrival

Time 2026-04-25 19:12
Airport Ted Stevens Anchorage International Airport (PANC)
Time Latitude Longitude Altitude Speed Heading
2026-04-25 17:08 58.35845 -134.58434 36 ft 0 kts 48°
2026-04-25 17:36 58.35835 -134.58454 36 ft 4 kts 48°
2026-04-25 17:36 58.35821 -134.58485 36 ft 2 kts 48°
2026-04-25 17:36 58.35807 -134.58516 36 ft 4 kts 88°
2026-04-25 17:36 58.35812 -134.58557 36 ft 4 kts 134°
2026-04-25 17:37 58.35829 -134.58566 36 ft 4 kts 175°
2026-04-25 17:37 58.35850 -134.58566 36 ft 4 kts 180°
2026-04-25 17:37 58.35870 -134.58566 36 ft 0 kts 180°
2026-04-25 17:40 58.35864 -134.58566 36 ft 2 kts 180°
2026-04-25 17:40 58.35842 -134.58566 36 ft 5 kts 181°
2026-04-25 17:40 58.35798 -134.58590 36 ft 9 kts 220°
2026-04-25 17:40 58.35735 -134.58547 36 ft 16 kts 109°
2026-04-25 17:41 58.35701 -134.58306 35 ft 21 kts 104°
2026-04-25 17:41 58.35662 -134.58024 36 ft 23 kts 104°
2026-04-25 17:41 58.35620 -134.57719 35 ft 25 kts 105°
2026-04-25 17:41 58.35575 -134.57398 36 ft 26 kts 105°
2026-04-25 17:42 58.35526 -134.57051 36 ft 28 kts 105°
2026-04-25 17:42 58.35475 -134.56683 36 ft 29 kts 104°
2026-04-25 17:42 58.35421 -134.56298 36 ft 30 kts 105°
2026-04-25 17:42 58.35370 -134.55926 35 ft 28 kts 104°
2026-04-25 17:43 58.35322 -134.55577 36 ft 25 kts 105°
2026-04-25 17:43 58.35285 -134.55334 34 ft 10 kts 117°
2026-04-25 17:43 58.35262 -134.55295 34 ft 0 kts 166°
2026-04-25 17:49 58.35254 -134.55293 36 ft 2 kts 174°
2026-04-25 17:49 58.35218 -134.55307 34 ft 9 kts 195°
2026-04-25 17:49 58.35181 -134.55387 35 ft 8 kts 282°
2026-04-25 17:49 58.35188 -134.55434 35 ft 3 kts 285°
2026-04-25 17:50 58.35245 -134.55831 35 ft 72 kts 285°
2026-04-25 17:50 58.35444 -134.57255 39 ft 147 kts 284°
2026-04-25 17:50 58.35731 -134.59327 643 ft 168 kts 285°
2026-04-25 17:50 58.36014 -134.61552 1537 ft 179 kts 279°
2026-04-25 17:51 58.36091 -134.64009 2210 ft 200 kts 270°
2026-04-25 17:51 58.36057 -134.66768 2766 ft 222 kts 269°
2026-04-25 17:51 58.36084 -134.69865 3379 ft 241 kts 281°
2026-04-25 17:51 58.36560 -134.73011 4183 ft 255 kts 288°
2026-04-25 17:52 58.37126 -134.76264 5136 ft 259 kts 288°
2026-04-25 17:52 58.37320 -134.77372 5474 ft 261 kts 288°
2026-04-25 17:52 58.38305 -134.82898 7087 ft 267 kts 288°
2026-04-25 17:52 58.38910 -134.86262 8038 ft 270 kts 287°
2026-04-25 17:53 58.39525 -134.89672 8963 ft 274 kts 287°
2026-04-25 17:53 58.40152 -134.93139 9883 ft 279 kts 287°
2026-04-25 17:53 58.40791 -134.96683 10559 ft 290 kts 287°
2026-04-25 17:53 58.41471 -135.00452 10950 ft 311 kts 287°
2026-04-25 17:54 58.42196 -135.04481 11290 ft 331 kts 287°
2026-04-25 17:54 58.42966 -135.08759 11588 ft 350 kts 288°
2026-04-25 17:54 58.44132 -135.12969 12022 ft 366 kts 301°
2026-04-25 17:54 58.45525 -135.17100 12635 ft 373 kts 300°
2026-04-25 17:55 58.46924 -135.21289 13411 ft 376 kts 300°
2026-04-25 17:55 58.48340 -135.25523 14112 ft 380 kts 300°
2026-04-25 17:55 58.49773 -135.29812 14724 ft 384 kts 299°
2026-04-25 17:55 58.51217 -135.34142 15380 ft 388 kts 299°
2026-04-25 17:56 58.52676 -135.38526 16012 ft 393 kts 299°
2026-04-25 17:56 58.54147 -135.42952 16693 ft 397 kts 299°
2026-04-25 17:56 58.55636 -135.47442 17326 ft 401 kts 299°
2026-04-25 17:56 58.57119 -135.51920 17935 ft 406 kts 299°
2026-04-25 17:57 58.58638 -135.56517 18573 ft 410 kts 298°
2026-04-25 17:57 58.60168 -135.61160 19092 ft 413 kts 298°
2026-04-25 17:57 58.61713 -135.65852 19664 ft 417 kts 298°
2026-04-25 17:57 58.62237 -135.67447 19855 ft 418 kts 298°
2026-04-25 17:58 58.64828 -135.75348 20728 ft 424 kts 298°
2026-04-25 17:58 58.66408 -135.80175 21245 ft 429 kts 298°
2026-04-25 17:58 58.67997 -135.85045 21763 ft 432 kts 298°
2026-04-25 17:58 58.69597 -135.89958 22255 ft 436 kts 298°
2026-04-25 17:59 58.71210 -135.94920 22745 ft 439 kts 298°
2026-04-25 17:59 58.72834 -135.99925 23246 ft 443 kts 297°
2026-04-25 17:59 58.74472 -136.04984 23713 ft 447 kts 297°
2026-04-25 17:59 58.76115 -136.10073 24113 ft 450 kts 297°
2026-04-25 18:00 58.77775 -136.15217 24537 ft 453 kts 297°
2026-04-25 18:00 58.79440 -136.20390 24959 ft 454 kts 297°
2026-04-25 18:00 58.81104 -136.25580 25345 ft 456 kts 297°
2026-04-25 18:00 58.82780 -136.30813 25664 ft 460 kts 297°
2026-04-25 18:01 58.84465 -136.36087 26110 ft 462 kts 297°
2026-04-25 18:01 58.86154 -136.41385 26464 ft 465 kts 297°
2026-04-25 18:01 58.87829 -136.46651 26844 ft 467 kts 297°
2026-04-25 18:01 58.89536 -136.52028 27210 ft 470 kts 296°
2026-04-25 18:02 58.91249 -136.57435 27571 ft 472 kts 296°
2026-04-25 18:02 58.92990 -136.62947 27935 ft 475 kts 296°
2026-04-25 18:02 58.94719 -136.68434 28291 ft 478 kts 296°
2026-04-25 18:02 58.96446 -136.73926 28695 ft 478 kts 296°
2026-04-25 18:03 58.98148 -136.79352 29167 ft 477 kts 296°
2026-04-25 18:03 58.99872 -136.84859 29666 ft 476 kts 296°
2026-04-25 18:03 59.01590 -136.90361 30096 ft 475 kts 296°
2026-04-25 18:03 59.03301 -136.95856 30568 ft 474 kts 295°
2026-04-25 18:04 59.05004 -137.01333 30978 ft 474 kts 295°
2026-04-25 18:04 59.06702 -137.06811 31379 ft 473 kts 295°
2026-04-25 18:04 59.08397 -137.12290 31785 ft 472 kts 295°
2026-04-25 18:04 59.09516 -137.15911 32065 ft 471 kts 295°
2026-04-25 18:05 59.11766 -137.23219 32560 ft 471 kts 295°
2026-04-25 18:05 59.12879 -137.26842 32836 ft 470 kts 295°
2026-04-25 18:05 59.14552 -137.32298 33266 ft 469 kts 294°
2026-04-25 18:05 59.16223 -137.37757 33612 ft 468 kts 294°
2026-04-25 18:06 59.17883 -137.43195 33985 ft 468 kts 294°
2026-04-25 18:06 59.19546 -137.48657 34359 ft 467 kts 294°
2026-04-25 18:06 59.21206 -137.54118 34684 ft 467 kts 294°
2026-04-25 18:06 59.22860 -137.59573 35001 ft 466 kts 294°
2026-04-25 18:07 59.24507 -137.65022 35320 ft 466 kts 294°
2026-04-25 18:07 59.26154 -137.70480 35632 ft 465 kts 294°
2026-04-25 18:07 59.27795 -137.75930 35977 ft 465 kts 295°
2026-04-25 18:07 59.29431 -137.81379 36286 ft 464 kts 295°
2026-04-25 18:08 59.31066 -137.86838 36498 ft 465 kts 295°
2026-04-25 18:08 59.32699 -137.92302 36746 ft 465 kts 295°
2026-04-25 18:08 59.34329 -137.97771 37001 ft 464 kts 295°
2026-04-25 18:08 59.35956 -138.03241 37127 ft 465 kts 295°
2026-04-25 18:09 59.37582 -138.08714 37276 ft 466 kts 295°
2026-04-25 18:09 59.39210 -138.14204 37516 ft 465 kts 295°
2026-04-25 18:09 59.40832 -138.19689 37807 ft 464 kts 295°
2026-04-25 18:09 59.41871 -138.23359 37952 ft 462 kts 290°
2026-04-25 18:10 59.43227 -138.31140 38289 ft 455 kts 283°
2026-04-25 18:10 59.45191 -138.42995 38326 ft 455 kts 283°
2026-04-25 18:11 59.47107 -138.54849 38298 ft 454 kts 282°
2026-04-25 18:11 59.49002 -138.66705 38305 ft 455 kts 282°
2026-04-25 18:12 59.50891 -138.78588 38295 ft 454 kts 282°
2026-04-25 18:12 59.52770 -138.90492 38295 ft 454 kts 282°
2026-04-25 18:13 59.54634 -139.02389 38327 ft 455 kts 282°
2026-04-25 18:13 59.56490 -139.14311 38269 ft 454 kts 282°
2026-04-25 18:14 59.59257 -139.32235 38284 ft 454 kts 282°
2026-04-25 18:14 59.61083 -139.44176 38286 ft 454 kts 282°
2026-04-25 18:15 59.62899 -139.56137 38285 ft 454 kts 282°
2026-04-25 18:15 59.64703 -139.68095 38286 ft 454 kts 282°
2026-04-25 18:16 59.66497 -139.80079 38289 ft 454 kts 282°
2026-04-25 18:17 59.69158 -139.98007 38296 ft 455 kts 282°
2026-04-25 18:17 59.70937 -140.10104 38289 ft 455 kts 281°
2026-04-25 18:18 59.72682 -140.22053 38291 ft 455 kts 281°
2026-04-25 18:18 59.74429 -140.34110 38289 ft 455 kts 281°
2026-04-25 18:19 59.76168 -140.46197 38291 ft 456 kts 281°
2026-04-25 18:19 59.77896 -140.58294 38290 ft 456 kts 281°
2026-04-25 18:20 59.79611 -140.70394 38294 ft 455 kts 281°
2026-04-25 18:20 59.81315 -140.82513 38288 ft 455 kts 281°
2026-04-25 18:21 59.82952 -140.94232 38305 ft 455 kts 280°
2026-04-25 18:21 59.83627 -140.99091 38288 ft 456 kts 281°
2026-04-25 18:22 59.85307 -141.11255 38285 ft 456 kts 280°
2026-04-25 18:22 59.86978 -141.23439 38287 ft 457 kts 280°
2026-04-25 18:23 59.88639 -141.35647 38286 ft 456 kts 280°
2026-04-25 18:23 59.90286 -141.47853 38291 ft 456 kts 279°
2026-04-25 18:24 59.91925 -141.60096 38316 ft 457 kts 279°
2026-04-25 18:24 59.93556 -141.72368 38281 ft 457 kts 279°
2026-04-25 18:25 59.95163 -141.84559 38278 ft 458 kts 279°
2026-04-25 18:25 59.96770 -141.96852 38282 ft 458 kts 279°
2026-04-25 18:26 59.98364 -142.09143 38281 ft 457 kts 279°
2026-04-25 18:26 59.99948 -142.21453 38277 ft 457 kts 279°
2026-04-25 18:27 60.01517 -142.33755 38284 ft 458 kts 278°
2026-04-25 18:27 60.03082 -142.46118 38269 ft 458 kts 278°
2026-04-25 18:28 60.04633 -142.58479 38289 ft 459 kts 278°
2026-04-25 18:28 60.06175 -142.70865 38279 ft 458 kts 278°
2026-04-25 18:29 60.08463 -142.89453 38290 ft 458 kts 278°
2026-04-25 18:30 60.11477 -143.14305 38286 ft 460 kts 278°
2026-04-25 18:30 60.12969 -143.26766 38280 ft 459 kts 278°
2026-04-25 18:31 60.14438 -143.39147 38287 ft 459 kts 278°
2026-04-25 18:31 60.15908 -143.51631 38291 ft 459 kts 277°
2026-04-25 18:32 60.17363 -143.64120 38275 ft 459 kts 277°
2026-04-25 18:32 60.18808 -143.76620 38292 ft 460 kts 277°
2026-04-25 18:33 60.20240 -143.89135 38282 ft 459 kts 277°
2026-04-25 18:33 60.21660 -144.01647 38282 ft 459 kts 277°
2026-04-25 18:34 60.23068 -144.14172 38279 ft 459 kts 277°
2026-04-25 18:34 60.24463 -144.26697 38278 ft 459 kts 277°
2026-04-25 18:35 60.25848 -144.39249 38293 ft 460 kts 277°
2026-04-25 18:35 60.27222 -144.51821 38282 ft 460 kts 277°
2026-04-25 18:36 60.28583 -144.64395 38290 ft 459 kts 277°
2026-04-25 18:36 60.29934 -144.76989 38286 ft 459 kts 277°
2026-04-25 18:37 60.31263 -144.89503 38292 ft 460 kts 276°
2026-04-25 18:37 60.32597 -145.02190 38309 ft 459 kts 276°
2026-04-25 18:38 60.33912 -145.14810 38287 ft 460 kts 276°
2026-04-25 18:38 60.35214 -145.27450 38282 ft 460 kts 276°
2026-04-25 18:39 60.36507 -145.40104 38285 ft 460 kts 276°
2026-04-25 18:39 60.37787 -145.52775 38292 ft 460 kts 276°
2026-04-25 18:40 60.39046 -145.65362 38291 ft 460 kts 276°
2026-04-25 18:40 60.40301 -145.78039 38311 ft 460 kts 276°
2026-04-25 18:41 60.41550 -145.90728 38295 ft 459 kts 276°
2026-04-25 18:41 60.42786 -146.03415 38314 ft 460 kts 276°
2026-04-25 18:42 60.43607 -146.11922 38316 ft 459 kts 276°
2026-04-25 18:42 60.45226 -146.28841 38327 ft 460 kts 276°
2026-04-25 18:43 60.46428 -146.41551 38307 ft 459 kts 276°
2026-04-25 18:43 60.47619 -146.54277 38309 ft 460 kts 276°
2026-04-25 18:44 60.49281 -146.66860 38343 ft 464 kts 283°
2026-04-25 18:44 60.51310 -146.79321 38321 ft 465 kts 283°
2026-04-25 18:45 60.53356 -146.91796 38326 ft 465 kts 283°
2026-04-25 18:45 60.55049 -147.02181 38314 ft 466 kts 283°
2026-04-25 18:46 60.57078 -147.14690 38333 ft 466 kts 283°
2026-04-25 18:46 60.59425 -147.29282 38233 ft 465 kts 283°
2026-04-25 18:47 60.60101 -147.33500 37729 ft 465 kts 283°
2026-04-25 18:47 60.61103 -147.39794 36659 ft 472 kts 283°
2026-04-25 18:47 60.62108 -147.46116 36169 ft 466 kts 283°
2026-04-25 18:47 60.63105 -147.52410 35369 ft 468 kts 283°
2026-04-25 18:48 60.64106 -147.58754 34575 ft 470 kts 282°
2026-04-25 18:48 60.65100 -147.65075 33924 ft 467 kts 282°
2026-04-25 18:48 60.66095 -147.71421 32857 ft 471 kts 282°
2026-04-25 18:48 60.67068 -147.77645 32344 ft 464 kts 282°
2026-04-25 18:49 60.68045 -147.83932 31289 ft 468 kts 282°
2026-04-25 18:49 60.69026 -147.90262 30647 ft 464 kts 282°
2026-04-25 18:49 60.69997 -147.96552 29386 ft 466 kts 282°
2026-04-25 18:49 60.70963 -148.02823 28311 ft 459 kts 282°
2026-04-25 18:50 60.71920 -148.09063 27298 ft 462 kts 282°
2026-04-25 18:50 60.72877 -148.15310 26541 ft 459 kts 282°
2026-04-25 18:50 60.73821 -148.21501 25838 ft 453 kts 282°
2026-04-25 18:50 60.74745 -148.27675 24989 ft 455 kts 282°
2026-04-25 18:51 60.75666 -148.33830 24343 ft 451 kts 282°
2026-04-25 18:51 60.76268 -148.37866 23923 ft 447 kts 282°
2026-04-25 18:51 60.77477 -148.45991 22849 ft 445 kts 282°
2026-04-25 18:51 60.78371 -148.52026 22159 ft 441 kts 281°
2026-04-25 18:52 60.79254 -148.58004 21487 ft 437 kts 281°
2026-04-25 18:52 60.80125 -148.63933 20802 ft 432 kts 281°
2026-04-25 18:52 60.80987 -148.69803 20131 ft 429 kts 281°
2026-04-25 18:52 60.81842 -148.75657 19461 ft 427 kts 281°
2026-04-25 18:53 60.82690 -148.81485 18795 ft 425 kts 281°
2026-04-25 18:53 60.83532 -148.87279 17252 ft 422 kts 281°
2026-04-25 18:53 60.84356 -148.92999 16931 ft 411 kts 283°
2026-04-25 18:53 60.85161 -148.98570 16509 ft 406 kts 283°
2026-04-25 18:54 60.86750 -149.09654 15644 ft 396 kts 283°
2026-04-25 18:54 60.87515 -149.15008 15336 ft 387 kts 283°
2026-04-25 18:54 60.88253 -149.20183 15077 ft 377 kts 283°
2026-04-25 18:55 60.89260 -149.25217 14544 ft 379 kts 294°
2026-04-25 18:55 60.90421 -149.30029 14142 ft 373 kts 292°
2026-04-25 18:55 60.91515 -149.34740 13791 ft 367 kts 292°
2026-04-25 18:55 60.92595 -149.39470 13377 ft 364 kts 292°
2026-04-25 18:56 60.93656 -149.44172 12967 ft 361 kts 292°
2026-04-25 18:56 60.94699 -149.48833 12547 ft 354 kts 292°
2026-04-25 18:56 60.95709 -149.53362 12120 ft 341 kts 292°
2026-04-25 18:56 60.96677 -149.57713 11748 ft 328 kts 292°
2026-04-25 18:57 60.97607 -149.61901 11383 ft 316 kts 292°
2026-04-25 18:57 60.98501 -149.65937 11037 ft 304 kts 292°
2026-04-25 18:57 60.99365 -149.69839 10691 ft 294 kts 292°
2026-04-25 18:57 60.99926 -149.72344 10463 ft 289 kts 295°
2026-04-25 18:58 61.01652 -149.76543 9986 ft 289 kts 316°
2026-04-25 18:58 61.04579 -149.82177 9341 ft 286 kts 316°
2026-04-25 18:58 61.06035 -149.84978 9015 ft 285 kts 317°
2026-04-25 18:59 61.08915 -149.90528 8357 ft 282 kts 316°
2026-04-25 18:59 61.10440 -149.97682 7653 ft 279 kts 269°
2026-04-25 19:00 61.10386 -150.05646 7064 ft 276 kts 268°
2026-04-25 19:00 61.10350 -150.09593 6754 ft 273 kts 268°
2026-04-25 19:01 61.10263 -150.17410 6128 ft 271 kts 268°
2026-04-25 19:01 61.10215 -150.21294 5816 ft 270 kts 268°
2026-04-25 19:01 61.10169 -150.25162 5749 ft 269 kts 265°
2026-04-25 19:01 61.10117 -150.28994 5291 ft 270 kts 265°
2026-04-25 19:02 61.09968 -150.36393 4944 ft 242 kts 263°
2026-04-25 19:02 61.09891 -150.39800 4784 ft 231 kts 263°
2026-04-25 19:02 61.09818 -150.43025 4677 ft 220 kts 264°
2026-04-25 19:03 61.09851 -150.48326 4015 ft 221 kts 269°
2026-04-25 19:03 61.09939 -150.52532 3545 ft 221 kts 269°
2026-04-25 19:03 61.10005 -150.55717 3210 ft 222 kts 269°
2026-04-25 19:04 61.11032 -150.61441 2928 ft 209 kts 317°
2026-04-25 19:04 61.12242 -150.62836 2960 ft 197 kts 347°
2026-04-25 19:05 61.14912 -150.62679 2978 ft 191 kts 26°
2026-04-25 19:05 61.16469 -150.58720 2953 ft 179 kts 78°
2026-04-25 19:05 61.16671 -150.56180 2983 ft 178 kts 89°
2026-04-25 19:06 61.16713 -150.53610 2984 ft 179 kts 92°
2026-04-25 19:06 61.16729 -150.48483 2976 ft 177 kts 92°
2026-04-25 19:06 61.16732 -150.45940 2977 ft 177 kts 92°
2026-04-25 19:07 61.16738 -150.40828 2971 ft 177 kts 93°
2026-04-25 19:07 61.16740 -150.38275 2944 ft 177 kts 93°
2026-04-25 19:08 61.16746 -150.33166 2888 ft 178 kts 93°
2026-04-25 19:08 61.16748 -150.30615 2664 ft 177 kts 92°
2026-04-25 19:09 61.16758 -150.23084 1980 ft 164 kts 91°
2026-04-25 19:09 61.16760 -150.21552 1852 ft 150 kts 91°
2026-04-25 19:09 61.16766 -150.16804 1406 ft 140 kts 90°
2026-04-25 19:10 61.16783 -150.14794 1218 ft 140 kts 90°
2026-04-25 19:10 61.16786 -150.12795 974 ft 138 kts 90°
2026-04-25 19:10 61.16777 -150.10801 781 ft 139 kts 89°
2026-04-25 19:10 61.16770 -150.08778 629 ft 141 kts 88°
2026-04-25 19:11 61.16778 -150.06753 434 ft 139 kts 87°
2026-04-25 19:11 61.16781 -150.04749 235 ft 140 kts 88°
2026-04-25 19:11 61.16780 -150.02783 143 ft 127 kts 89°
2026-04-25 19:11 61.16785 -150.01302 138 ft 71 kts 90°
2026-04-25 19:12 61.16786 -150.00491 135 ft 53 kts 90°
2026-04-25 19:12 61.16800 -149.99824 129 ft 40 kts 77°
2026-04-25 19:12 61.16885 -149.99427 124 ft 15 kts 50°
2026-04-25 19:12 61.16972 -149.99309 127 ft 15 kts 33°
2026-04-25 19:13 61.17069 -149.99159 119 ft 19 kts 37°
2026-04-25 19:13 61.17149 -149.99013 117 ft 17 kts 50°
2026-04-25 19:13 61.17217 -149.98843 115 ft 12 kts 49°
2026-04-25 19:13 61.17286 -149.98738 114 ft 10 kts 33°
2026-04-25 19:14 61.17341 -149.98664 111 ft 8 kts 34°
2026-04-25 19:14 61.17357 -149.98641 111 ft 9 kts 33°
2026-04-25 19:14 61.17453 -149.98550 111 ft 6 kts 34°
2026-04-25 19:14 61.17465 -149.98478 111 ft 5 kts 82°
2026-04-25 19:15 61.17468 -149.98432 110 ft 3 kts 82°
2026-04-25 19:15 61.17468 -149.98425 113 ft 0 kts 82°